Date String (YYYY-MM-DD hh:mm:ss) UTC,Instrument flags,absolute air pressure of the measurement (hPa),sample flow rate (lpm),inlet stack bypass flow (lpm),air temperature of the measurement (°C),ambient temperature measured by the external sensor (°C),aerosol sample conditioner tube jacket temperature (°C),OPC LED temperature (°C),internal box temperature (°C),relative humidity of the measurement (%),span deviation,mass concentration of particles derived from Lorenz-Mie calculation of OPC scattering (μg/m³),mass concentration of particles derived from Lorenz-Mie calculation of OPC scattering (μg/m³),mass concentration of particles derived from Lorenz-Mie calculation of OPC scattering (μg/m³)
DateTimeUTC,F1_M11,P_M11,Q1_M11,Q2_M11,T1_M11,T2_M11,T3_M11,T4_M11,T5_M11,U1_M11,ZSPAN_M11,X0_M11,X2_M11,X1_M11
2024-03-21 16:00:00,SystemResetWarning,0826.2,5.00,000.00,021.2,020.7,000.0,029.5,023.0,19.5,0000.0,0010.67,0003.96,0003.38
2024-03-21 16:01:00,SystemResetWarning,0826.2,5.00,000.00,021.3,020.8,000.0,029.6,023.1,19.7,0000.0,0011.66,0004.06,0003.45
2024-03-21 16:02:00,SystemResetWarning,0826.2,4.99,000.00,021.3,020.8,000.0,029.6,023.1,19.3,0000.0,0011.61,0004.16,0003.57
2024-03-21 16:03:00,SystemResetWarning,0826.2,4.99,000.00,021.3,020.8,000.0,029.6,023.1,18.8,0000.0,0011.25,0004.22,0003.63
2024-03-21 16:04:00,SystemResetWarning,0826.2,5.00,000.00,021.3,020.8,000.0,029.6,023.1,18.3,0000.0,0011.35,0004.26,0003.64
2024-03-21 16:05:00,SystemResetWarning,0826.2,5.00,000.00,021.3,020.8,000.0,029.6,023.1,18.4,0000.0,0010.73,0004.27,0003.66
2024-03-21 16:06:00,SystemResetWarning,0826.2,5.00,000.00,021.3,020.8,000.0,029.6,023.1,18.9,0000.0,0010.49,0004.34,0003.73
2024-03-21 16:07:00,SystemResetWarning,0826.2,5.00,000.00,021.3,020.8,000.0,029.6,023.1,19.4,0000.6,0010.57,0004.48,0003.84
2024-03-21 16:08:00,SystemResetWarning,0826.2,5.00,000.00,021.3,020.8,000.0,029.7,023.1,19.7,0002.9,0010.82,0004.58,0003.92
2024-03-21 16:09:00,SystemResetWarning,0826.2,5.00,000.00,021.4,020.8,000.0,029.7,023.2,19.5,0001.3,0011.23,0004.66,0003.98
2024-03-21 16:10:00,SystemResetWarning,0826.2,5.00,000.00,021.4,020.9,000.0,029.7,023.2,19.7,0000.0,0011.58,0004.70,0004.00
2024-03-21 16:11:00,SystemResetWarning,0826.2,5.00,000.00,021.4,020.9,000.0,029.7,023.2,20.2,0000.0,0012.28,0004.73,0004.02
2024-03-21 16:12:00,SystemResetWarning,0826.2,5.00,000.00,021.4,020.9,000.0,029.7,023.2,19.9,0000.0,0011.52,0004.73,0004.03
2024-03-21 16:13:00,SystemResetWarning,0826.2,5.00,000.00,021.4,020.9,000.0,029.7,023.2,20.2,0000.0,0012.13,0004.76,0004.04
2024-03-21 16:14:00,SystemResetWarning,0826.2,5.00,000.00,021.4,020.9,000.0,029.7,023.2,20.1,0000.0,0012.33,0004.83,0004.07
2024-03-21 16:15:00,SystemResetWarning,0826.2,5.00,000.00,021.4,020.9,000.0,029.7,023.2,19.8,0001.3,0012.44,0004.85,0004.09
2024-03-21 16:16:00,SystemResetWarning,0826.2,5.00,000.00,021.5,020.9,000.0,029.8,023.2,20.0,0000.0,0012.87,0004.89,0004.12
2024-03-21 16:17:00,SystemResetWarning,0826.2,5.00,000.00,021.5,021.0,000.0,029.8,023.3,20.3,0000.0,0012.87,0004.90,0004.14
2024-03-21 16:18:00,SystemResetWarning,0826.2,5.00,000.00,021.5,021.0,000.0,029.8,023.3,20.5,0000.0,0012.80,0004.85,0004.13
2024-03-21 16:19:00,SystemResetWarning,0826.2,5.00,000.00,021.5,021.0,000.0,029.8,023.3,20.0,0000.0,0012.59,0004.83,0004.12
2024-03-21 16:20:00,SystemResetWarning,0826.2,5.00,000.00,021.5,021.0,000.0,029.8,023.3,20.0,0000.0,0012.10,0004.84,0004.12
2024-03-21 16:21:00,SystemResetWarning,0826.2,5.00,000.00,021.5,021.0,000.0,029.8,023.3,20.7,0000.0,0011.54,0004.81,0004.11
2024-03-21 16:22:00,SystemResetWarning,0826.2,5.00,000.00,021.5,021.0,000.0,029.8,023.3,20.6,0000.0,0011.43,0004.81,0004.09
2024-03-21 16:23:00,SystemResetWarning,0826.2,5.00,000.00,021.5,021.0,000.0,029.8,023.3,20.2,0000.0,0011.35,0004.82,0004.09
2024-03-21 16:24:00,SystemResetWarning,0826.2,5.00,000.00,021.6,021.0,000.0,029.9,023.3,20.5,0000.0,0010.80,0004.82,0004.08
2024-03-21 16:25:00,SystemResetWarning,0826.2,5.01,000.00,021.6,021.0,000.0,029.9,023.3,20.2,0000.0,0011.26,0004.77,0004.08
2024-03-21 16:26:00,SystemResetWarning,0826.2,5.00,000.00,021.6,021.0,000.0,029.9,023.4,20.5,0000.0,0011.29,0004.78,0004.09
2024-03-21 16:27:00,SystemResetWarning,0826.2,5.00,000.00,021.6,021.1,000.0,029.9,023.4,21.1,0000.0,0010.83,0004.81,0004.12
2024-03-21 16:28:00,SystemResetWarning,0826.1,5.00,000.00,021.6,021.1,000.0,029.9,023.4,21.0,0000.0,0010.86,0004.81,0004.14
2024-03-21 16:29:00,SystemResetWarning,0826.2,5.01,000.00,021.6,021.1,000.0,029.9,023.4,21.1,0000.0,0011.41,0004.87,0004.17
2024-03-21 16:30:00,SystemResetWarning,0826.2,5.00,000.00,021.6,021.1,000.0,029.9,023.4,20.2,0000.0,0011.54,0004.95,0004.22
2024-03-21 16:31:00,SystemResetWarning,0826.2,5.00,000.00,021.6,021.1,000.0,029.9,023.4,19.7,0000.0,0011.70,0004.97,0004.24
2024-03-21 16:32:00,SystemResetWarning,0826.2,5.00,000.00,021.7,021.1,000.0,030.0,023.4,19.8,0000.0,0012.10,0004.96,0004.25
2024-03-21 16:33:00,SystemResetWarning,0826.2,4.99,000.00,021.7,021.1,000.0,030.0,023.5,19.8,0000.0,0012.25,0005.01,0004.27
2024-03-21 16:34:00,SystemResetWarning,0826.2,4.98,000.00,021.7,021.1,000.0,030.0,023.5,18.9,0000.0,0012.10,0004.99,0004.25
2024-03-21 16:35:00,SystemResetWarning,0826.2,5.00,000.00,021.7,021.2,000.0,030.0,023.5,16.9,0000.0,0011.94,0004.90,0004.19
2024-03-21 16:36:00,SystemResetWarning,0826.2,5.01,000.00,021.7,021.2,000.0,030.0,023.5,16.4,0000.0,0011.73,0004.80,0004.09
2024-03-21 16:37:00,SystemResetWarning,0826.2,5.01,000.00,021.7,021.2,000.0,030.0,023.5,16.7,0000.0,0011.02,0004.73,0004.01
2024-03-21 16:38:00,SystemResetWarning,0826.2,5.01,000.00,021.7,021.2,000.0,030.0,023.5,15.3,0000.0,0010.74,0004.61,0003.90
2024-03-21 16:39:00,SystemResetWarning,0826.1,5.00,000.00,021.7,021.2,000.0,030.0,023.5,16.4,0000.0,0010.69,0004.48,0003.77
2024-03-21 16:40:00,SystemResetWarning,0826.1,4.99,000.00,021.7,021.2,000.0,030.1,023.5,16.8,0000.0,0010.83,0004.38,0003.66
2024-03-21 16:41:00,SystemResetWarning,0826.2,5.00,000.00,021.8,021.2,000.0,030.1,023.6,16.4,0000.0,0010.17,0004.18,0003.52
2024-03-21 16:42:00,SystemResetWarning,0826.1,5.02,000.00,021.8,021.3,000.0,030.1,023.6,14.4,0000.0,0010.12,0004.00,0003.36
2024-03-21 16:43:00,SystemResetWarning,0826.1,5.00,000.00,021.8,021.3,000.0,030.1,023.6,14.7,0000.0,0010.17,0003.86,0003.22
2024-03-21 16:44:00,SystemResetWarning,0826.1,4.98,000.00,021.8,021.3,000.0,030.1,023.6,16.0,0000.0,0011.06,0003.73,0003.10
2024-03-21 16:45:00,SystemResetWarning,0826.1,5.01,000.00,021.8,021.3,000.0,030.1,023.6,14.8,0000.0,0011.05,0003.60,0002.92
2024-03-21 16:46:00,SystemResetWarning,0826.1,5.01,000.00,021.8,021.3,000.0,030.1,023.6,14.9,0000.0,0011.31,0003.52,0002.77
2024-03-21 16:47:00,SystemResetWarning,0826.1,4.99,000.00,021.9,021.3,000.0,030.1,023.7,15.9,0000.0,0011.47,0003.48,0002.72
2024-03-21 16:48:00,SystemResetWarning,0826.0,4.98,000.00,021.9,021.4,000.0,030.1,023.7,15.8,0000.0,0011.22,0003.42,0002.66
2024-03-21 16:49:00,SystemResetWarning,0826.0,5.00,000.00,021.9,021.4,000.0,030.2,023.7,16.9,0000.0,0011.30,0003.41,0002.66
2024-03-21 16:50:00,SystemResetWarning,0826.0,5.01,000.00,021.9,021.4,000.0,030.2,023.7,16.4,0000.0,0011.37,0003.41,0002.69
2024-03-21 16:51:00,SystemResetWarning,0826.0,5.00,000.00,021.9,021.4,000.0,030.2,023.7,15.4,0000.0,0011.51,0003.35,0002.66
2024-03-21 16:52:00,SystemResetWarning,0826.0,5.00,000.00,021.9,021.4,000.0,030.2,023.7,15.2,0000.0,0011.99,0003.32,0002.66
2024-03-21 16:53:00,SystemResetWarning,0826.0,5.00,000.00,021.9,021.4,000.0,030.2,023.7,14.2,0000.0,0011.89,0003.30,0002.64
2024-03-21 16:54:00,SystemResetWarning,0826.0,4.99,000.00,021.9,021.4,000.0,030.2,023.8,15.2,0000.0,0010.99,0003.31,0002.68
2024-03-21 16:55:00,SystemResetWarning,0826.0,4.99,000.00,022.0,021.5,000.0,030.2,023.8,15.4,0000.0,0009.50,0003.28,0002.67
2024-03-21 16:56:00,SystemResetWarning,0826.0,5.00,000.00,022.0,021.5,000.0,030.3,023.8,15.7,0000.0,0009.15,0003.27,0002.68
2024-03-21 16:57:00,SystemResetWarning,0826.0,5.01,000.00,022.0,021.5,000.0,030.3,023.8,14.7,0000.0,0009.23,0003.25,0002.71
2024-03-21 16:58:00,SystemResetWarning,0826.0,5.00,000.00,022.0,021.5,000.0,030.3,023.8,14.3,0000.0,0008.86,0003.20,0002.65
2024-03-21 16:59:00,SystemResetWarning,0826.0,5.00,000.00,022.0,021.5,000.0,030.3,023.8,14.9,0000.0,0008.83,0003.17,0002.61
